Погода в Староселье

Россия / Калужская область     54°54′42″N   36°26′15″E
темп.,
°C
ветер,
м/с
пор.,
м/с
влажн.,
%
обл.,
%
осадки,
мм/ч
давл.,
гПа
погр.,
м
29 июня, ср
ср2900:00+13в287031 0.0 1023173
03:00+11всв23744 0.0 102347
06:00+13всв257527 0.0 1023144
09:00+18всв34505 0.0 1023724
12:00+22всв233574 0.0 10221695
15:00+23всв2234100 0.0 10211965
18:00+22св1143100 0.0 10201688
21:00+15ю22780 0.0 102042
30 июня, чт
чт3000:00+13юз01810 0.0 102010
03:00+11юв11850 0.0 102110
06:00+14зсз11792 0.0 102051
09:00+19ссз235711 0.0 1020592
12:00+23с34385 0.0 10191782
15:00+24ссз3433100 0.0 10182158
18:00+22с354552 0.0 1018845
21:00+16с22707 0.0 101922
1 июля, пт
пт100:00+13с22712 0.0 101922
03:00+12ссз227869 0.0 102013
06:00+15сз26765 0.0 1020170
09:00+21ссв365664 0.0 1020823
12:00+24ссв47415 0.0 10202233
15:00+25ссв57360 0.0 10192378
18:00+23св46420 0.0 10191163
21:00+16в22700 0.0 102126
2 июля, сб
сб200:00+13юв11681 0.0 102210
03:00+11юз017094 0.0 102210
06:00+13зсз23715 0.0 102284
09:00+21сз235248 0.0 1020422
12:00+26зсз354531 0.0 10181118
15:00+28ссз584476 0.0 10162670
18:00+24сз286474 0.0 1015367
21:00+20с4118781 1.4 1016408
3 июля, вс
вс300:00+18сз259242 1.8 101686
03:00+16ссз229354 1.8 101620
06:00+17ссз129016 0.0 101671
09:00+23с236244 0.0 1016435
12:00+27ссз2447100 0.0 10161381
15:00+28ссз3542100 0.0 10152142
18:00+27ссв25534 0.0 1014497
21:00+19сз389043 0.4 1015171